Location: Izdebno
(52.6670°N, 16.2170°E)
Time: 03:00:58
(UTC+02:00)

Transit 4A - Pass Details

Date: 02 March 2024
Orbit: 871 x 972 km, 66.8° (Epoch: 22 April)

Event Time Altitude Azimuth Distance (km) Brightness Sun altitude
Rises 00:29:25 0° 214° (SW) 3,592 - -44.2°
Reaches altitude 10° 00:31:58 10° 213° (SSW) 2,637 - -44.2°
Maximum altitude 00:38:06 83° 128° (SE) 928 - -44.0°
Exits shadow 00:43:04 16° 41° (NE) 2,202 10.3 -43.8°
Drops below altitude 10° 00:44:06 10° 40° (NE) 2,581 10.7 -43.8°
Sets 00:46:35 0° 40° (NE) 3,512 11.6 -43.7°
